Temp
14 13 13 12 11 11 11 11 12 14 13 7 8 4 6 5 5 5 5 6 6 6 6 6 6 6 5 5 5 5 4 4 4 4 4 5 5 5
12 12 11 10 9 9 9 9 9 10 10 6 3 3 4 3 3 4 5 5 5 6 6 5 5 5 5 5 4 4 3 3 3 4 4 4 5 5
10 9 8 8 8 7 7 7 7 7 9 3 3 4 3 2 2 3 4 4 4 4 4 4 4 4 4 3 2 2 2 2 2 3 3 4 4 3
7 6 7 7 6 6 5 5 5 6 6 4 2 2 2 2 2 3 3 3 2 3 3 2 2 1 1 1 2 2 1 1 1 2 2 2 2 2
6 5 6 5 5 5 4 4 4 4 4 4 2 1 1 1 1 1 1 1 1 2 2 1 2 2 1 2 2 1 1 0 0 1 1 1 1 1
5 5 5 4 4 3 3 3 3 4 4 4 3 2 2 1 1 2 2 1 1 0 1 1 1 1 1 1 1 1 1 1 0 -0 0 0 1 1
3 3 3 3 3 2 2 2 2 3 4 3 3 3 2 2 3 1 2 2 1 -1 0 1 0 0 0 0 1 1 1 1 -0 -1 -0 0 0 0
1 1 1 1 1 1 2 2 1 2 2 2 2 3 2 2 1 1 1 1 3 -1 -0 1 -1 0 0 -0 -0 0 0 -0 -0 -1 -1 -0 -0 -1
1 1 0 0 -0 0 -1 -1 -0 1 1 1 2 2 1 0 -1 -2 -1 -1 0 -0 -2 1 -0 0 -0 -1 -0 0 0 0 -1 -2 -2 -2 -2 -1
-0 -0 -0 -1 -0 -1 -1 -1 -1 -1 -1 -1 -0 -1 -1 -2 -2 -2 -2 -2 -1 -2 -2 -0 -0 -0 -0 -1 -2 -2 -2 -2 -2 -2 -2 -2 -2 -2
-1 -1 -1 -1 -1 -1 -2 -2 -1 -2 -3 -2 -2 -2 -2 -2 -2 -2 -2 -1 0 -1 -2 -2 -1 -2 -1 -2 -2 -2 -2 -2 -2 -2 -3 -3 -3 -3
-2 -2 -2 -1 -2 -2 -1 -1 -1 -2 -3 -3 -3 -3 -3 -3 -3 -3 -3 -3 -2 -1 -3 -3 -4 -3 -2 -2 -3 -3 -2 -2 -2 -2 -3 -2 -2 -3
-1 -2 -2 -2 -2 -3 -2 -2 -1 -2 -3 -3 -3 -3 -3 -4 -4 -4 -4 -5 -4 -3 -4 -5 -5 -5 -4 -3 -3 -3 -3 -3 -3 -3 -3 -3 -4 -4
-2 -2 -2 -3 -3 -3 -3 -3 -3 -3 -3 -3 -3 -3 -3 -4 -5 -5 -6 -6 -6 -6 -6 -6 -6 -5 -5 -5 -4 -3 -3 -3 -4 -4 -4 -4 -3 -4
-2 -2 -2 -3 -3 -3 -3 -3 -3 -3 -3 -3 -3 -4 -4 -5 -5 -6 -6 -6 -6 -6 -6 -6 -7 -6 -6 -6 -5 -5 -5 -4 -5 -5 -4 -5 -5 -4
-2 -3 -3 -3 -3 -3 -3 -3 -4 -3 -3 -3 -3 -4 -5 -6 -6 -6 -6 -6 -6 -6 -6 -6 -6 -6 -6 -6 -6 -6 -5 -5 -4 -5 -5 -5 -5 -5
-3 -4 -3 -3 -3 -3 -3 -4 -4 -4 -4 -4 -4 -5 -5 -5 -5 -6 -6 -6 -6 -6 -6 -6 -7 -7 -7 -7 -6 -5 -5 -4 -4 -5 -5 -5 -5 -4
-4 -3 -2 -2 -3 -2 -3 -3 -4 -4 -4 -4 -5 -5 -5 -5 -5 -6 -6 -6 -7 -6 -6 -6 -6 -6 -5 -5 -5 -6 -5 -4 -5 -5 -5 -5 -5 -4
-3 -3 -2 -3 -3 -3 -3 -4 -4 -4 -5 -5 -5 -5 -5 -6 -6 -6 -6 -6 -7 -6 -6 -6 -7 -7 -6 -4 -4 -5 -6 -5 -5 -5 -5 -4 -4 -4
-2 -3 -3 -3 -4 -4 -4 -4 -5 -5 -6 -6 -6 -6 -6 -6 -6 -6 -6 -7 -7 -7 -7 -7 -7 -7 -7 -6 -6 -6 -6 -6 -6 -5 -5 -5 -5 -5
-3 -3 -3 -3 -4 -4 -4 -5 -5 -5 -6 -6 -6 -6 -6 -6 -6 -6 -6 -6 -6 -7 -7 -6 -6 -7 -7 -8 -8 -6 -5 -5 -6 -6 -6 -6 -5 -5
-3 -3 -3 -2 -3 -3 -3 -4 -4 -5 -5 -6 -6 -7 -7 -7 -6 -6 -6 -6 -6 -7 -7 -7 -7 -8 -8 -8 -7 -6 -6 -5 -6 -6 -6 -6 -6 -5
-2 -2 -2 -2 -2 -2 -3 -3 -4 -4 -4 -5 -6 -7 -7 -7 -7 -7 -7 -7 -7 -7 -8 -8 -7 -7 -7 -7 -7 -7 -7 -6 -6 -5 -5 -4 -5 -5
Height
820 822 824 826 828 830 831 831 832 830 831 836 837 837 837 837 838 838 838 839 839 841 840 841 842 843 845 846 845 845 846 846 846 846 847 847 847 847
817 819 822 823 827 828 830 830 830 831 831 835 836 837 837 837 838 838 838 839 839 840 841 841 841 842 842 842 843 844 844 845 845 845 845 845 845 845
816 818 821 822 824 826 827 827 829 830 830 834 834 835 836 838 838 838 838 838 839 839 839 839 839 839 840 841 842 842 843 843 843 843 843 844 844 844
816 817 820 820 823 824 825 827 827 828 829 831 833 834 835 836 836 836 836 838 838 837 837 837 837 838 839 840 840 840 840 840 840 841 842 842 842 842
817 818 815 819 820 823 825 826 826 827 827 829 832 834 834 835 837 837 837 838 838 837 837 837 837 837 837 838 838 838 838 838 838 838 839 839 839 839
815 817 816 818 820 822 825 825 826 827 828 829 832 833 834 836 837 836 837 838 838 837 836 836 835 835 835 835 835 835 835 835 835 835 836 836 836 837
815 815 819 820 819 822 824 824 825 827 828 829 831 833 835 835 836 837 837 838 837 836 836 835 835 835 834 833 833 832 832 832 833 833 833 834 834 834
816 816 820 822 821 822 823 824 826 827 828 830 831 833 834 834 835 837 838 837 836 835 835 834 832 832 832 831 830 830 830 830 830 830 830 831 831 830
817 818 820 820 821 823 825 827 826 827 828 830 832 833 833 834 835 836 837 838 837 836 834 832 831 831 830 829 827 827 827 827 828 828 828 828 827 827
817 818 820 821 821 825 828 827 828 829 829 830 832 832 832 833 835 836 837 837 836 835 834 833 831 829 828 827 824 823 823 824 826 826 825 825 825 824
818 819 821 822 823 825 826 827 828 829 829 830 830 831 832 832 834 835 836 836 834 834 834 834 831 830 827 825 824 823 823 824 823 823 822 821 819 817
820 821 822 823 823 824 825 827 828 829 829 830 831 832 832 832 833 834 835 835 835 834 834 834 832 831 827 824 823 823 822 822 819 818 818 816 813 812
820 821 822 823 823 824 824 826 827 828 828 829 831 832 832 833 833 833 833 834 835 834 833 832 831 831 831 827 822 821 820 818 817 815 813 811 809 808
818 819 821 822 823 823 824 825 827 827 828 830 831 831 832 832 832 832 831 832 832 832 831 830 830 831 830 827 823 820 818 816 814 811 810 808 806 805
817 818 819 821 822 822 823 825 826 827 828 829 829 830 830 830 829 829 829 829 828 827 827 827 827 827 827 825 821 818 817 813 811 808 806 804 802 801
816 817 818 819 821 821 822 824 824 825 826 827 827 828 828 827 828 828 827 827 826 825 824 824 823 823 822 821 819 815 813 812 807 805 802 800 798 797
814 815 816 818 819 819 820 821 822 823 824 824 825 826 826 826 826 826 825 824 824 823 823 822 820 818 817 815 814 810 808 806 804 801 798 794 793 792
812 813 814 815 815 816 816 818 819 819 820 821 822 823 823 823 824 823 822 821 821 820 819 818 817 815 812 809 806 804 804 801 799 797 795 791 786 786
809 809 810 811 811 811 813 814 814 815 816 817 818 819 820 820 820 819 818 817 817 817 816 815 814 813 810 806 803 800 799 797 795 792 790 787 782 779
805 806 806 806 806 807 808 809 810 811 812 813 814 814 815 816 816 815 814 813 813 813 811 810 809 808 807 804 801 797 796 792 790 786 783 781 777 773
800 801 801 801 802 803 804 804 805 806 807 808 808 809 810 811 811 810 809 809 809 808 806 805 804 803 801 800 796 789 787 786 784 781 778 776 771 767
793 794 795 796 797 798 798 798 799 801 801 802 803 804 804 805 805 805 805 804 803 802 800 799 799 798 796 794 789 785 780 780 778 775 773 771 768 762
785 787 788 790 790 791 792 792 793 794 795 795 797 797 798 799 799 799 798 798 797 797 796 795 793 792 790 788 785 781 777 773 770 767 764 762 760 756
Wind_Speed
17 15 12 11 9 9 10 10 6 6 5 2 2 2 2 2 4 1 2 5 4 3 3 4 4 5 7 8 10 12 10 9 8 6 7 7 8 9
15 12 11 8 6 7 7 7 7 5 2 1 1 1 3 2 1 1 3 3 3 4 6 7 8 9 11 12 10 8 7 6 5 6 6 7 7 8
10 8 6 6 6 5 6 6 4 4 5 3 3 1 1 1 1 1 2 4 6 7 9 10 11 11 11 7 4 3 5 6 6 6 6 7 6 6
7 8 7 6 6 5 4 4 4 6 4 4 3 1 1 1 1 1 1 3 2 4 4 5 2 2 4 6 7 8 8 7 6 5 5 6 7 8
6 7 8 8 8 7 6 6 5 5 4 4 4 3 1 0 0 1 1 1 2 3 3 4 5 7 8 9 9 8 7 7 7 7 7 7 8 8
8 7 9 9 9 9 7 7 6 6 6 7 5 4 3 2 2 0 0 1 1 3 5 6 8 10 11 12 11 9 10 9 8 7 8 8 7 8
10 11 9 10 11 9 7 6 6 5 5 5 5 4 4 3 2 0 1 3 3 3 5 5 4 6 7 8 9 10 9 8 8 8 8 9 10 10
14 14 15 12 11 9 7 7 6 5 6 5 4 5 4 2 1 1 2 3 2 2 6 6 5 4 5 5 9 9 10 10 11 11 10 8 8 10
16 16 12 11 10 10 9 9 8 7 6 4 4 3 3 2 3 1 1 2 3 4 6 4 3 4 5 7 12 14 15 15 8 6 7 9 9 11
12 10 9 8 7 7 6 6 6 5 5 5 5 4 4 3 2 1 1 3 4 3 4 3 4 7 7 8 12 6 5 5 7 6 6 7 10 14
10 9 7 7 7 7 6 7 6 6 5 5 5 4 4 3 4 2 2 2 2 1 3 3 4 10 9 7 5 4 4 8 11 12 11 13 15 14
8 7 8 6 6 6 5 6 7 6 5 3 2 2 4 1 3 3 3 3 2 3 1 4 5 7 6 3 4 5 6 9 15 14 14 19 17 13
8 8 6 6 5 4 5 5 5 7 5 4 4 4 4 3 2 2 2 3 3 5 2 3 3 5 4 8 10 8 11 10 11 14 12 13 12 9
8 7 7 7 5 5 4 5 6 6 4 5 5 5 5 4 3 3 4 4 5 8 9 7 5 4 8 13 10 7 12 13 14 12 13 10 14 16
7 7 7 7 5 5 5 7 8 4 5 6 6 6 5 5 6 5 5 5 8 10 10 10 11 11 12 12 13 15 15 10 18 14 12 15 16 14
8 7 6 6 8 6 7 8 7 6 7 6 6 5 5 4 5 6 5 5 7 7 8 9 11 12 13 15 17 20 17 12 11 17 19 18 17 15
8 7 6 7 8 8 8 8 8 8 8 7 7 6 6 6 7 7 6 5 6 8 9 7 8 11 14 16 17 19 19 18 17 16 15 17 17 17
9 8 9 10 11 10 10 10 10 10 10 9 9 8 8 8 8 8 8 7 8 10 10 8 8 9 9 14 16 17 14 16 14 14 15 19 21 15
13 11 11 11 11 11 11 11 11 11 12 11 10 10 9 9 9 10 9 9 10 11 11 10 8 7 9 8 12 16 16 15 17 18 18 18 23 23
17 14 13 12 12 12 13 13 11 11 12 12 12 11 11 11 11 11 10 11 12 13 13 11 10 10 11 10 10 15 17 24 21 21 19 19 21 24
20 17 16 15 15 15 15 14 14 13 13 13 13 13 13 13 13 12 12 13 14 14 16 14 12 11 15 13 13 21 19 16 20 23 21 20 22 23
20 21 20 20 20 18 17 16 16 16 16 16 17 15 13 13 14 14 14 14 13 14 16 15 14 13 13 14 18 21 23 17 15 21 24 24 22 8
26 26 25 25 22 21 20 19 19 19 19 19 17 16 15 14 14 14 15 15 14 14 14 16 14 14 17 18 20 21 23 24 21 20 22 20 23 28
Wind_Direction
211 203 207 203 227 235 233 218 236 249 230 138 155 22 352 29 46 78 119 157 192 220 247 256 275 299 296 299 302 301 300 302 305 302 293 300 302 295
196 194 203 213 224 221 228 226 223 238 191 142 138 302 334 334 43 89 130 172 205 231 252 266 275 282 290 293 294 294 297 295 292 292 299 297 296 295
182 182 193 199 204 212 223 215 196 198 230 182 197 312 341 357 339 268 239 249 267 266 271 273 275 277 283 283 283 272 281 285 289 293 290 286 296 305
183 177 188 183 176 185 157 164 168 173 180 155 176 181 130 319 307 311 307 286 284 272 275 269 277 236 227 241 256 270 275 284 287 283 277 284 283 287
173 169 164 167 163 168 165 159 155 154 151 154 143 163 148 160 7 49 55 14 279 275 283 278 264 261 258 261 266 272 270 269 274 269 269 276 282 283
163 162 156 164 163 156 153 137 126 113 124 129 134 154 163 170 168 136 285 347 314 307 296 279 274 269 269 266 264 263 260 266 272 281 287 287 286 283
147 141 143 148 147 148 137 127 125 140 149 151 154 163 175 177 196 341 285 302 292 324 316 298 288 283 280 285 264 273 260 262 273 282 280 275 278 282
132 127 129 117 107 107 121 136 138 148 144 150 155 183 170 148 150 245 300 311 284 328 334 303 292 287 287 277 265 262 260 266 277 280 280 272 270 283
144 141 140 137 123 114 114 101 96 122 132 133 163 163 153 158 187 216 287 284 279 306 325 290 296 291 284 290 283 271 271 269 264 233 256 271 279 277
147 142 140 141 149 155 154 128 106 95 93 100 118 126 118 151 160 180 263 284 287 300 339 282 314 303 298 299 298 299 299 204 198 276 289 277 281 280
144 140 143 137 151 164 158 146 140 122 112 126 130 142 142 159 181 192 229 268 267 246 320 305 327 316 301 291 290 279 187 207 248 277 281 290 294 290
146 151 154 148 153 158 157 170 172 170 171 156 161 178 154 153 186 214 235 240 267 266 263 334 326 346 320 292 294 283 275 288 288 286 292 292 289 289
167 169 169 165 166 179 159 166 174 165 163 162 177 178 176 182 178 195 228 227 241 250 280 328 296 315 286 303 307 293 289 294 290 297 297 298 292 283
181 183 191 187 185 180 172 174 170 163 163 181 191 193 200 209 231 248 255 246 247 250 258 262 257 262 286 294 283 302 302 293 292 292 296 289 296 294
183 182 181 185 197 197 203 183 189 191 196 203 209 210 211 225 261 281 292 284 281 279 267 251 248 261 262 260 275 289 308 298 288 286 288 292 296 291
186 183 196 195 203 211 197 196 205 217 220 224 220 214 222 249 260 260 266 271 280 284 272 258 261 256 259 263 271 278 283 276 282 289 290 289 288 282
189 191 196 203 207 209 210 215 220 220 221 219 219 228 235 246 257 260 265 268 267 277 279 271 270 269 263 264 269 270 279 278 281 285 289 288 288 285
197 205 214 215 217 215 216 219 221 222 224 224 227 234 241 250 258 260 263 259 272 278 276 280 285 296 287 279 264 262 272 281 286 288 285 287 288 287
215 222 223 220 219 218 219 221 224 226 224 224 229 236 243 250 254 262 264 265 273 276 275 277 273 272 283 284 284 257 261 275 285 285 279 274 281 287
225 229 229 227 225 224 224 226 227 224 228 229 230 234 239 244 252 258 264 265 272 278 279 272 258 255 260 279 295 270 256 272 278 281 284 283 280 287
222 230 234 233 233 231 231 231 233 231 229 232 233 233 237 242 250 254 261 263 269 272 274 271 267 266 272 276 266 274 281 279 278 273 280 286 288 290
230 234 239 240 238 237 237 236 238 240 238 239 240 238 237 239 248 252 258 263 265 265 268 275 279 279 263 252 269 283 291 295 281 277 271 261 263 273
236 243 244 245 243 243 241 240 241 243 244 244 242 242 242 241 245 250 254 256 263 267 268 278 281 274 269 265 270 279 286 294 297 294 282 274 267 267